Reggio Calabria, Italy

1:18 PM CEST on August 24, 2016 (GMT +0200)
Reggio Calabria

Weather History for LICR - October, 2012

Change the Weather History Date:

Friday, October 26, 2012

  Actual Average Record
Temperature  
Mean Temperature 68 °F -  
Max Temperature 75 °F 67 °F 78 °F (1999)
Min Temperature 62 °F 56 °F 55 °F (1996)
Cooling Degree Days 4    
Growing Degree Days 18 (Base 50)    
Moisture  
Dew Point 61 °F    
Average Humidity 72    
Maximum Humidity 82    
Minimum Humidity 57    
Precipitation  
Precipitation 0.00 in - - ()
Sea Level Pressure  
Sea Level Pressure 29.82 in    
Wind  
Wind Speed 8 mph ()    
Max Wind Speed 17 mph    
Max Gust Speed -    
Visibility 6.2 miles    
Events      
Averages and records for this station are not official NWS values.
T = Trace of Precipitation, MM = Missing Value Source: Averaged Metar Reports

Daily Weather History Graph

Daily Weather History Graph

Search for Another Location

Airport or City:

Trip Planner

Search our weather history database for the weather conditions in past years. The results will help you decide how hot, cold, wet, or windy it might be!

Date:

Astronomy

Oct. 26, 2012 Rise Set
Actual Time 7:17 AM CEST 6:04 PM CEST
Civil Twilight 6:50 AM CEST 6:31 PM CEST
Nautical Twilight 6:19 AM CEST 7:02 PM CEST
Astronomical Twilight 5:48 AM CEST 7:33 PM CEST
Moon 4:09 PM CEST (10/26) 3:58 AM CEST (10/26)
Length of Visible Light 11h 41m
Length of Day
10h 47m
Waxing Gibbous, 89% of the Moon is Illuminated
Oct 26
Waxing Gibbous
Oct 29
Full
Nov 7
Last Quarter
Nov 13
New
Nov 20
First Quarter

Hourly Weather History & Observations

Time (CEST) Temp. Dew Point Humidity Pressure Visibility Wind Dir Wind Speed Gust Speed Precip Events Conditions
5:50 AM 62.6 °F 57.2 °F 82% 29.89 in 6.2 mi ENE 6.9 mph - N/A   Scattered Clouds
6:50 AM 62.6 °F 55.4 °F 77% 29.89 in 6.2 mi ENE 5.8 mph - N/A   Scattered Clouds
7:50 AM 62.6 °F 53.6 °F 72% 29.89 in 6.2 mi ENE 3.5 mph - N/A   Scattered Clouds
8:50 AM 66.2 °F 57.2 °F 73% 29.89 in 6.2 mi East 3.5 mph - N/A   Scattered Clouds
9:50 AM 71.6 °F 60.8 °F 69% 29.89 in 6.2 mi South 4.6 mph - N/A   Scattered Clouds
10:50 AM 73.4 °F 60.8 °F 65% 29.89 in 6.2 mi South 10.4 mph - N/A   Scattered Clouds
11:50 AM 75.2 °F 60.8 °F 61% 29.86 in 6.2 mi South 13.8 mph - N/A   Scattered Clouds
12:50 PM 73.4 °F 64.4 °F 73% 29.86 in 6.2 mi South 12.7 mph - N/A   Scattered Clouds
1:50 PM 73.4 °F 64.4 °F 73% 29.83 in 6.2 mi South 12.7 mph - N/A   Scattered Clouds
2:50 PM 73.4 °F 62.6 °F 69% 29.83 in 6.2 mi South 13.8 mph - N/A   Scattered Clouds
3:50 PM 73.4 °F 57.2 °F 57% 29.80 in 6.2 mi South 10.4 mph - N/A   Partly Cloudy
4:50 PM 73.4 °F 59.0 °F 61% 29.80 in 6.2 mi SSE 10.4 mph - N/A   Partly Cloudy
5:50 PM 71.6 °F 60.8 °F 69% 29.80 in 6.2 mi South 9.2 mph - N/A   Scattered Clouds
6:50 PM 71.6 °F 62.6 °F 73% 29.80 in 6.2 mi South 10.4 mph - N/A   Scattered Clouds
7:50 PM 71.6 °F 62.6 °F 73% 29.77 in 6.2 mi South 11.5 mph - N/A   Scattered Clouds
8:50 PM 71.6 °F 62.6 °F 73% 29.77 in 6.2 mi SSE 12.7 mph - N/A   Scattered Clouds
9:50 PM 71.6 °F 64.4 °F 78% 29.77 in 6.2 mi SSE 12.7 mph - N/A   Scattered Clouds
10:50 PM 71.6 °F 64.4 °F 78% 29.74 in 6.2 mi South 12.7 mph - N/A   Scattered Clouds
11:36 PM 71.6 °F 64.4 °F 78% 29.74 in 6.2 mi South 13.8 mph - N/A   Drizzle
11:50 PM 71.6 °F 64.4 °F 78% 29.74 in 6.2 mi South 17.3 mph - N/A   Drizzle